Location: Ajisawe
(8.4333°N, 4.3833°E)
Time: 02:56:41
(UTC+00:00)

X-37B - Pass Details

Date: 08 March 2021
Orbit: 380 x 394 km, 45.0° (Epoch: 07 April)

Event Time Altitude Azimuth Distance (km) Brightness Sun altitude
Exits shadow 04:08:18 16° 53° (NE) 1,094 3.4 -26.6°
Drops below altitude 10° 04:10:05 10° 87° (E) 1,408 4.4 -26.2°
Sets 04:12:39 0° 109° (ESE) 2,260 5.6 -25.6°
